MMF26 EDDK-EDDK

Flight info

Callsign MMF26
Flight time 0h 6m
Altitude 27000
Route PODIP Y867 ROSUX Z858 BERDI Z21 BIRKA L620 TALEG STAY1/0145 TALEG/N0360F260 DCT LASTO DCT ERSIL Y221 TOXIF DCT KOPAG
Aircraft A332/H-SDFGHIJ4J5LM1OP2RTUVWXY/LB1

Departure

Time 2026-04-24 20:39
Airport Cologne Bonn Airport (EDDK)

Arrival

Time 2026-04-24 20:45
Airport Cologne Bonn Airport (EDDK)
Time Latitude Longitude Altitude Speed Heading
2026-04-24 17:09 50.86610 7.12001 238 ft 0 kts 255°
2026-04-24 18:54 51.04514 12.53688 18095 ft 365 kts 219°
2026-04-24 18:55 51.00371 12.49005 18096 ft 365 kts 219°
2026-04-24 18:55 50.98288 12.46694 18105 ft 365 kts 219°
2026-04-24 18:55 50.96205 12.44392 18099 ft 365 kts 218°
2026-04-24 18:56 50.94118 12.42089 18115 ft 365 kts 219°
2026-04-24 18:56 50.92027 12.39782 18094 ft 365 kts 219°
2026-04-24 18:56 50.89948 12.37487 18098 ft 365 kts 219°
2026-04-24 18:56 50.87856 12.35176 18101 ft 365 kts 219°
2026-04-24 18:57 50.85802 12.32908 18121 ft 365 kts 219°
2026-04-24 18:57 50.83715 12.30604 18117 ft 365 kts 219°
2026-04-24 18:57 50.81634 12.28304 18112 ft 365 kts 219°
2026-04-24 18:57 50.79547 12.25998 18120 ft 365 kts 219°
2026-04-24 18:58 50.77469 12.23702 18119 ft 365 kts 219°
2026-04-24 18:58 50.75388 12.21402 18121 ft 365 kts 219°
2026-04-24 18:58 50.73288 12.19135 18123 ft 367 kts 214°
2026-04-24 18:58 50.70900 12.17607 18132 ft 374 kts 196°
2026-04-24 18:59 50.68293 12.17300 18136 ft 381 kts 178°
2026-04-24 18:59 50.65704 12.18317 18136 ft 386 kts 158°
2026-04-24 18:59 50.63431 12.20592 18132 ft 390 kts 139°
2026-04-24 18:59 50.61732 12.23854 18134 ft 392 kts 119°
2026-04-24 19:00 50.60756 12.27821 18133 ft 390 kts 100°
2026-04-24 19:00 50.60625 12.32042 18131 ft 386 kts 80°
2026-04-24 19:00 50.61351 12.36067 18130 ft 379 kts 61°
2026-04-24 19:00 50.62813 12.39463 18132 ft 372 kts 43°
2026-04-24 19:01 50.64800 12.42004 18139 ft 367 kts 30°
2026-04-24 19:01 50.66931 12.44225 18132 ft 367 kts 29°
2026-04-24 19:01 50.69054 12.46454 18132 ft 367 kts 30°
2026-04-24 19:01 50.71160 12.48722 18130 ft 367 kts 31°
2026-04-24 19:02 50.72554 12.50250 18131 ft 367 kts 31°
2026-04-24 19:02 50.75351 12.53352 18113 ft 368 kts 31°
2026-04-24 19:02 50.77441 12.55686 18116 ft 368 kts 31°
2026-04-24 19:02 50.79530 12.58021 18136 ft 367 kts 31°
2026-04-24 19:03 50.81615 12.60352 18138 ft 367 kts 31°
2026-04-24 19:03 50.83711 12.62693 18115 ft 368 kts 31°
2026-04-24 19:03 50.85795 12.65022 18121 ft 368 kts 31°
2026-04-24 19:03 50.87891 12.67361 18125 ft 368 kts 31°
2026-04-24 19:04 50.89982 12.69694 18122 ft 368 kts 31°
2026-04-24 19:04 50.92077 12.72031 18122 ft 368 kts 31°
2026-04-24 19:04 50.94163 12.74357 18124 ft 368 kts 31°
2026-04-24 19:04 50.96256 12.76690 18131 ft 368 kts 31°
2026-04-24 19:05 50.98325 12.78994 18123 ft 367 kts 30°
2026-04-24 19:05 51.00601 12.80816 18134 ft 360 kts 14°
2026-04-24 19:05 51.03005 12.81482 18127 ft 353 kts 357°
2026-04-24 19:05 51.05415 12.81005 18127 ft 347 kts 341°
2026-04-24 19:06 51.07591 12.79469 18122 ft 343 kts 326°
2026-04-24 19:06 51.09395 12.77013 18126 ft 341 kts 310°
2026-04-24 19:06 51.10677 12.73865 18128 ft 340 kts 295°
2026-04-24 19:06 51.11350 12.70258 18127 ft 343 kts 279°
2026-04-24 19:07 51.11428 12.67737 18129 ft 345 kts 269°
2026-04-24 19:07 51.10957 12.63936 18127 ft 350 kts 253°
2026-04-24 19:07 51.09819 12.60530 18123 ft 357 kts 237°
2026-04-24 19:07 51.08056 12.57729 18124 ft 364 kts 220°
2026-04-24 19:08 51.05988 12.55384 18129 ft 365 kts 220°
2026-04-24 19:08 51.03925 12.53017 18131 ft 365 kts 219°
2026-04-24 19:08 51.01857 12.50671 18133 ft 365 kts 219°
2026-04-24 19:08 50.99785 12.48351 18125 ft 365 kts 219°
2026-04-24 19:09 50.97701 12.46041 18127 ft 365 kts 219°
2026-04-24 19:09 50.95619 12.43742 18131 ft 365 kts 219°
2026-04-24 19:09 50.93532 12.41439 18138 ft 365 kts 219°
2026-04-24 19:09 50.91451 12.39144 18122 ft 365 kts 219°
2026-04-24 19:10 50.89363 12.36839 18118 ft 365 kts 219°
2026-04-24 19:10 50.87280 12.34540 18119 ft 365 kts 219°
2026-04-24 19:10 50.85224 12.32270 18139 ft 365 kts 219°
2026-04-24 19:10 50.83145 12.29973 18139 ft 365 kts 219°
2026-04-24 19:11 50.81065 12.27674 18130 ft 365 kts 219°
2026-04-24 19:11 50.78981 12.25369 18132 ft 365 kts 219°
2026-04-24 19:11 50.76903 12.23072 18132 ft 365 kts 219°
2026-04-24 19:11 50.74825 12.20776 18131 ft 365 kts 219°
2026-04-24 19:12 50.72679 12.18611 18133 ft 368 kts 209°
2026-04-24 19:12 50.70225 12.17398 18134 ft 376 kts 191°
2026-04-24 19:12 50.67593 12.17438 18130 ft 383 kts 173°
2026-04-24 19:12 50.65059 12.18806 18138 ft 388 kts 153°
2026-04-24 19:13 50.63580 12.20391 18135 ft 390 kts 140°
2026-04-24 19:13 50.61394 12.24865 18131 ft 392 kts 114°
2026-04-24 19:13 50.60636 12.28958 18132 ft 389 kts 95°
2026-04-24 19:13 50.60739 12.33174 18132 ft 385 kts 75°
2026-04-24 19:14 50.61677 12.37055 18130 ft 378 kts 56°
2026-04-24 19:14 50.63313 12.40243 18132 ft 371 kts 38°
2026-04-24 19:14 50.65377 12.42615 18132 ft 367 kts 30°
2026-04-24 19:14 50.67506 12.44829 18132 ft 367 kts 29°
2026-04-24 19:15 50.69628 12.47069 18129 ft 367 kts 30°
2026-04-24 19:15 50.71742 12.49357 18135 ft 367 kts 31°
2026-04-24 19:15 50.73835 12.51664 18134 ft 368 kts 31°
2026-04-24 19:15 50.75928 12.53993 18114 ft 368 kts 31°
2026-04-24 19:16 50.80107 12.58664 18136 ft 368 kts 31°
2026-04-24 19:16 50.82197 12.61002 18139 ft 368 kts 31°
2026-04-24 19:16 50.84292 12.63342 18116 ft 368 kts 31°
2026-04-24 19:17 50.86363 12.65655 18126 ft 368 kts 31°
2026-04-24 19:17 50.88455 12.67989 18139 ft 368 kts 31°
2026-04-24 19:17 50.90552 12.70329 18128 ft 368 kts 31°
2026-04-24 19:17 50.92647 12.72665 18126 ft 368 kts 31°
2026-04-24 19:18 50.94738 12.74996 18129 ft 368 kts 31°
2026-04-24 19:18 50.96833 12.77332 18125 ft 368 kts 31°
2026-04-24 19:18 50.98948 12.79624 18122 ft 365 kts 26°
2026-04-24 19:18 51.01271 12.81116 18128 ft 358 kts
2026-04-24 19:19 51.03718 12.81458 18122 ft 351 kts 352°
2026-04-24 19:19 51.06078 12.80660 18126 ft 345 kts 336°
2026-04-24 19:19 51.08167 12.78834 18120 ft 342 kts 321°
2026-04-24 19:19 51.09825 12.76161 18121 ft 340 kts 306°
2026-04-24 19:20 51.10939 12.72852 18131 ft 340 kts 290°
2026-04-24 19:20 51.11421 12.69166 18129 ft 343 kts 275°
2026-04-24 19:20 51.11221 12.65371 18132 ft 348 kts 259°
2026-04-24 19:20 51.10344 12.61813 18135 ft 354 kts 243°
2026-04-24 19:21 51.08785 12.58689 18131 ft 361 kts 226°
2026-04-24 19:21 51.06723 12.56446 18154 ft 369 kts 210°
2026-04-24 19:21 51.04271 12.55204 18178 ft 377 kts 193°
2026-04-24 19:21 51.01627 12.55113 18193 ft 383 kts 176°
2026-04-24 19:22 50.99857 12.55730 18181 ft 387 kts 164°
2026-04-24 19:22 50.96741 12.58479 18157 ft 392 kts 141°
2026-04-24 19:22 50.94927 12.61711 18155 ft 394 kts 123°
2026-04-24 19:22 50.93874 12.65690 18112 ft 392 kts 98°
2026-04-24 19:23 50.93878 12.69964 18157 ft 387 kts 76°
2026-04-24 19:23 50.94839 12.73870 18127 ft 378 kts 51°
2026-04-24 19:23 50.96597 12.76899 18087 ft 371 kts 38°
2026-04-24 19:23 50.98596 12.79495 18079 ft 367 kts 31°
2026-04-24 19:24 51.00818 12.81378 18127 ft 360 kts 14°
2026-04-24 19:24 51.03251 12.81992 18123 ft 352 kts 355°
2026-04-24 19:24 51.05618 12.81235 18121 ft 345 kts 335°
2026-04-24 19:24 51.07621 12.79225 18120 ft 341 kts 315°
2026-04-24 19:25 51.09024 12.76212 18135 ft 340 kts 295°
2026-04-24 19:25 51.09644 12.72591 18124 ft 343 kts 276°
2026-04-24 19:25 51.09527 12.68796 18129 ft 346 kts 265°
2026-04-24 19:25 51.09165 12.65064 18124 ft 347 kts 262°
2026-04-24 19:26 51.08534 12.61339 18124 ft 351 kts 250°
2026-04-24 19:26 51.07298 12.57958 18125 ft 357 kts 236°
2026-04-24 19:26 51.05588 12.55066 18126 ft 361 kts 226°
2026-04-24 19:26 51.03628 12.52535 18125 ft 364 kts 220°
2026-04-24 19:27 51.01573 12.50201 18134 ft 364 kts 219°
2026-04-24 19:27 50.99482 12.47926 18133 ft 365 kts 218°
2026-04-24 19:27 50.97380 12.45652 18124 ft 364 kts 218°
2026-04-24 19:27 50.95295 12.43379 18132 ft 364 kts 218°
2026-04-24 19:28 50.93205 12.41087 18121 ft 364 kts 219°
2026-04-24 19:28 50.91125 12.38794 18121 ft 364 kts 219°
2026-04-24 19:28 50.89049 12.36502 18120 ft 364 kts 219°
2026-04-24 19:28 50.86985 12.34222 18140 ft 364 kts 219°
2026-04-24 19:29 50.82815 12.29614 18117 ft 364 kts 219°
2026-04-24 19:29 50.80738 12.27318 18113 ft 364 kts 219°
2026-04-24 19:29 50.78661 12.25023 18137 ft 364 kts 219°
2026-04-24 19:30 50.76584 12.22727 18135 ft 364 kts 219°
2026-04-24 19:30 50.74509 12.20433 18133 ft 364 kts 219°
2026-04-24 19:30 50.72331 12.18363 18139 ft 369 kts 207°
2026-04-24 19:30 50.69830 12.17319 18136 ft 377 kts 189°
2026-04-24 19:31 50.67199 12.17549 18131 ft 384 kts 170°
2026-04-24 19:31 50.64702 12.19097 18136 ft 389 kts 150°
2026-04-24 19:31 50.62629 12.21825 18135 ft 392 kts 131°
2026-04-24 19:31 50.61196 12.25460 18131 ft 392 kts 111°
2026-04-24 19:32 50.60564 12.29594 18134 ft 389 kts 92°
2026-04-24 19:32 50.60794 12.33802 18131 ft 384 kts 72°
2026-04-24 19:32 50.61829 12.37569 18132 ft 378 kts 53°
2026-04-24 19:32 50.63534 12.40646 18131 ft 370 kts 36°
2026-04-24 19:33 50.65627 12.42968 18131 ft 368 kts 29°
2026-04-24 19:33 50.67778 12.45208 18129 ft 367 kts 29°
2026-04-24 19:33 50.69879 12.47435 18134 ft 367 kts 30°
2026-04-24 19:33 50.71990 12.49728 18138 ft 368 kts 31°
2026-04-24 19:34 50.74088 12.52045 18132 ft 369 kts 31°
2026-04-24 19:34 50.76183 12.54379 18119 ft 368 kts 31°
2026-04-24 19:34 50.78277 12.56719 18126 ft 368 kts 31°
2026-04-24 19:34 50.80363 12.59053 18137 ft 368 kts 31°
2026-04-24 19:35 50.82448 12.61383 18138 ft 368 kts 31°
2026-04-24 19:35 50.84556 12.63738 18120 ft 368 kts 31°
2026-04-24 19:35 50.86652 12.66079 18122 ft 368 kts 31°
2026-04-24 19:35 50.88746 12.68416 18137 ft 369 kts 31°
2026-04-24 19:36 50.90839 12.70749 18127 ft 368 kts 31°
2026-04-24 19:36 50.92935 12.73088 18123 ft 368 kts 31°
2026-04-24 19:36 50.95032 12.75426 18125 ft 368 kts 31°
2026-04-24 19:36 50.97133 12.77768 18129 ft 368 kts 31°
2026-04-24 19:37 50.99239 12.79981 18123 ft 365 kts 23°
2026-04-24 19:37 51.01625 12.81327 18126 ft 357 kts
2026-04-24 19:37 51.04049 12.81493 18127 ft 350 kts 350°
2026-04-24 19:37 51.06374 12.80545 18125 ft 344 kts 334°
2026-04-24 19:38 51.08407 12.78601 18121 ft 341 kts 319°
2026-04-24 19:38 51.10000 12.75841 18125 ft 340 kts 303°
2026-04-24 19:38 51.11039 12.72475 18135 ft 340 kts 289°
2026-04-24 19:38 51.11443 12.68762 18124 ft 343 kts 273°
2026-04-24 19:39 51.11166 12.64978 18126 ft 348 kts 257°
2026-04-24 19:39 51.10201 12.61423 18122 ft 354 kts 242°
2026-04-24 19:39 51.08597 12.58420 18123 ft 361 kts 225°
2026-04-24 19:39 51.06557 12.56040 18125 ft 364 kts 219°
2026-04-24 19:40 51.04504 12.53687 18127 ft 364 kts 220°
2026-04-24 19:40 51.02456 12.51352 18129 ft 364 kts 219°
2026-04-24 19:40 51.00384 12.49023 18125 ft 364 kts 219°
2026-04-24 19:40 50.98313 12.46720 18127 ft 364 kts 219°
2026-04-24 19:41 50.96234 12.44422 18124 ft 364 kts 219°
2026-04-24 19:41 50.94152 12.42123 18121 ft 364 kts 219°
2026-04-24 19:41 50.92075 12.39832 18142 ft 364 kts 219°
2026-04-24 19:41 50.89996 12.37538 18116 ft 364 kts 219°
2026-04-24 19:42 50.87918 12.35244 18118 ft 364 kts 219°
2026-04-24 19:42 50.85841 12.32951 18123 ft 364 kts 219°
2026-04-24 19:42 50.83768 12.30660 18140 ft 364 kts 219°
2026-04-24 19:42 50.81694 12.28369 18136 ft 364 kts 219°
2026-04-24 19:43 50.79648 12.26109 18117 ft 364 kts 219°
2026-04-24 19:43 50.77545 12.23785 18133 ft 364 kts 219°
2026-04-24 19:43 50.75494 12.21518 18131 ft 364 kts 219°
2026-04-24 19:43 50.73410 12.19252 18123 ft 365 kts 215°
2026-04-24 19:44 50.71056 12.17666 18136 ft 373 kts 198°
2026-04-24 19:44 50.69147 12.17248 18133 ft 379 kts 184°
2026-04-24 19:44 50.68131 12.17309 18132 ft 381 kts 177°
2026-04-24 19:45 50.65549 12.18389 18131 ft 387 kts 158°
2026-04-24 19:45 50.63293 12.20718 18133 ft 391 kts 138°
2026-04-24 19:45 50.61601 12.24075 18132 ft 392 kts 118°
2026-04-24 19:45 50.60666 12.28092 18131 ft 391 kts 99°
2026-04-24 19:46 50.60583 12.32326 18136 ft 387 kts 79°
2026-04-24 19:46 50.61353 12.36342 18135 ft 381 kts 60°
2026-04-24 19:46 50.62827 12.39670 18127 ft 373 kts 42°
2026-04-24 19:46 50.64828 12.42189 18135 ft 368 kts 30°
2026-04-24 19:47 50.66967 12.44421 18135 ft 368 kts 29°
2026-04-24 19:47 50.69099 12.46661 18132 ft 368 kts 30°
2026-04-24 19:47 50.71210 12.48935 18112 ft 368 kts 30°
2026-04-24 19:47 50.73314 12.51247 18120 ft 369 kts 31°
2026-04-24 19:48 50.75409 12.53575 18119 ft 368 kts 31°
2026-04-24 19:48 50.77502 12.55912 18139 ft 369 kts 31°
2026-04-24 19:48 50.81695 12.60600 18116 ft 369 kts 31°
2026-04-24 19:49 50.85888 12.65284 18127 ft 369 kts 31°
2026-04-24 19:49 50.90081 12.69962 18130 ft 369 kts 31°
2026-04-24 19:50 50.96355 12.76958 18129 ft 369 kts 31°
2026-04-24 19:50 50.98459 12.79292 18126 ft 367 kts 28°
2026-04-24 19:51 51.03170 12.81601 18127 ft 352 kts 356°
2026-04-24 19:51 51.05573 12.81041 18126 ft 346 kts 340°
2026-04-24 19:52 51.09492 12.76942 18124 ft 340 kts 309°
2026-04-24 19:52 51.10741 12.73765 18128 ft 339 kts 294°
2026-04-24 19:52 51.11380 12.70150 18129 ft 341 kts 279°
2026-04-24 19:52 51.11353 12.66366 18126 ft 345 kts 263°
2026-04-24 19:53 51.10640 12.62700 18126 ft 351 kts 248°
2026-04-24 19:53 51.09803 12.60492 18122 ft 355 kts 237°
2026-04-24 19:53 51.05972 12.55361 18126 ft 364 kts 220°
2026-04-24 19:54 51.03921 12.53008 18131 ft 363 kts 220°
2026-04-24 19:54 51.01866 12.50677 18126 ft 363 kts 219°
2026-04-24 19:54 50.99796 12.48361 18123 ft 363 kts 219°
2026-04-24 19:54 50.97730 12.46073 18126 ft 363 kts 219°
2026-04-24 19:55 50.96349 12.44548 18129 ft 363 kts 219°
2026-04-24 19:55 50.93578 12.41491 18128 ft 363 kts 219°
2026-04-24 19:55 50.91499 12.39198 18130 ft 363 kts 219°
2026-04-24 19:55 50.89421 12.36905 18141 ft 363 kts 219°
2026-04-24 19:56 50.87352 12.34619 18143 ft 363 kts 219°
2026-04-24 19:56 50.85275 12.32325 18121 ft 363 kts 219°
2026-04-24 19:56 50.83205 12.30038 18113 ft 363 kts 219°
2026-04-24 19:56 50.81131 12.27747 18140 ft 364 kts 219°
2026-04-24 19:57 50.79057 12.25457 18140 ft 363 kts 219°
2026-04-24 19:57 50.76986 12.23162 18137 ft 364 kts 219°
2026-04-24 19:57 50.74912 12.20870 18131 ft 364 kts 219°
2026-04-24 19:57 50.72785 12.18700 18132 ft 367 kts 210°
2026-04-24 19:58 50.70341 12.17426 18127 ft 375 kts 193°
2026-04-24 19:58 50.67745 12.17378 18135 ft 383 kts 174°
2026-04-24 19:58 50.65167 12.18662 18134 ft 388 kts 155°
2026-04-24 19:58 50.62983 12.21157 18131 ft 392 kts 135°
2026-04-24 19:59 50.61404 12.24598 18133 ft 393 kts 116°
2026-04-24 19:59 50.60581 12.28660 18134 ft 391 kts 96°
2026-04-24 19:59 50.60614 12.32910 18136 ft 386 kts 77°
2026-04-24 19:59 50.61492 12.36860 18130 ft 380 kts 57°
2026-04-24 20:00 50.63062 12.40113 18129 ft 373 kts 39°
2026-04-24 20:00 50.65110 12.42554 18134 ft 368 kts 30°
2026-04-24 20:00 50.67253 12.44786 18131 ft 368 kts 29°
2026-04-24 20:00 50.69381 12.47027 18128 ft 368 kts 30°
2026-04-24 20:01 50.71491 12.49307 18129 ft 369 kts 30°
2026-04-24 20:01 50.73597 12.51627 18127 ft 369 kts 31°
2026-04-24 20:01 50.75695 12.53963 18136 ft 369 kts 31°
2026-04-24 20:01 50.77792 12.56307 18140 ft 369 kts 31°
2026-04-24 20:02 50.79171 12.57849 18142 ft 369 kts 31°
2026-04-24 20:02 50.79460 12.58172 18137 ft 369 kts 31°
2026-04-24 20:02 50.80498 12.59334 18121 ft 369 kts 31°
2026-04-24 20:02 50.82594 12.61677 18123 ft 369 kts 31°
2026-04-24 20:03 50.84692 12.64021 18132 ft 369 kts 31°
2026-04-24 20:03 50.86795 12.66368 18123 ft 369 kts 31°
2026-04-24 20:03 50.88888 12.68704 18132 ft 369 kts 31°
2026-04-24 20:03 50.90993 12.71052 18125 ft 369 kts 31°
2026-04-24 20:04 50.93074 12.73372 18139 ft 369 kts 31°
2026-04-24 20:04 50.95192 12.75732 18135 ft 369 kts 31°
2026-04-24 20:04 50.97281 12.78061 18125 ft 369 kts 31°
2026-04-24 20:04 50.99434 12.80253 18131 ft 364 kts 21°
2026-04-24 20:05 51.01784 12.81470 18129 ft 357 kts
2026-04-24 20:05 51.04231 12.81549 18125 ft 350 kts 348°
2026-04-24 20:05 51.06537 12.80520 18125 ft 344 kts 333°
2026-04-24 20:05 51.08551 12.78497 18130 ft 340 kts 317°
2026-04-24 20:06 51.10109 12.75671 18125 ft 339 kts 302°
2026-04-24 20:06 51.11100 12.72287 18126 ft 339 kts 287°
2026-04-24 20:06 51.11459 12.68580 18132 ft 342 kts 272°
2026-04-24 20:06 51.11145 12.64817 18121 ft 347 kts 257°
2026-04-24 20:07 51.10562 12.62437 18128 ft 351 kts 246°
2026-04-24 20:07 51.08546 12.58349 18132 ft 361 kts 224°
2026-04-24 20:07 51.06479 12.55974 18123 ft 363 kts 219°
2026-04-24 20:07 51.04434 12.53631 18123 ft 363 kts 220°
2026-04-24 20:08 51.02382 12.51284 18126 ft 363 kts 220°
2026-04-24 20:08 51.00321 12.48958 18128 ft 363 kts 219°
2026-04-24 20:08 50.98256 12.46654 18125 ft 363 kts 219°
2026-04-24 20:08 50.96194 12.44370 18128 ft 363 kts 219°
2026-04-24 20:09 50.94118 12.42080 18133 ft 363 kts 219°
2026-04-24 20:09 50.92166 12.39584 18143 ft 358 kts 230°
2026-04-24 20:09 50.90777 12.36443 18125 ft 350 kts 248°
2026-04-24 20:09 50.90129 12.32767 18129 ft 344 kts 267°
2026-04-24 20:10 50.90300 12.29026 18129 ft 341 kts 285°
2026-04-24 20:10 50.91000 12.25450 18130 ft 340 kts 288°
2026-04-24 20:10 50.91714 12.21869 18125 ft 340 kts 288°
2026-04-24 20:10 50.92421 12.18287 18133 ft 340 kts 288°
2026-04-24 20:11 50.93126 12.14701 18126 ft 340 kts 288°
2026-04-24 20:11 50.93827 12.11123 18130 ft 340 kts 288°
2026-04-24 20:11 50.94527 12.07541 18123 ft 340 kts 288°
2026-04-24 20:11 50.95225 12.03966 18137 ft 340 kts 288°
2026-04-24 20:12 50.95925 12.00374 18126 ft 340 kts 288°
2026-04-24 20:12 50.96619 11.96808 18126 ft 340 kts 288°
2026-04-24 20:12 50.97310 11.93255 18123 ft 340 kts 288°
2026-04-24 20:12 50.98009 11.89628 18129 ft 340 kts 288°
2026-04-24 20:13 50.98699 11.86042 18143 ft 340 kts 287°
2026-04-24 20:13 50.99391 11.82443 18143 ft 340 kts 287°
2026-04-24 20:13 51.00086 11.78836 18281 ft 343 kts 287°
2026-04-24 20:13 51.00782 11.75217 18978 ft 344 kts 287°
2026-04-24 20:14 51.01483 11.71566 19900 ft 345 kts 287°
2026-04-24 20:14 51.02187 11.67896 20707 ft 350 kts 288°
2026-04-24 20:14 51.02891 11.64218 21514 ft 354 kts 287°
2026-04-24 20:14 51.03611 11.60447 22375 ft 358 kts 287°
2026-04-24 20:15 51.04337 11.56634 23215 ft 363 kts 287°
2026-04-24 20:15 51.05075 11.52754 23865 ft 369 kts 287°
2026-04-24 20:15 51.05816 11.48855 24056 ft 369 kts 287°
2026-04-24 20:15 51.06556 11.44944 24133 ft 369 kts 287°
2026-04-24 20:16 51.07293 11.41043 24139 ft 369 kts 287°
2026-04-24 20:16 51.08031 11.37132 24141 ft 368 kts 287°
2026-04-24 20:16 51.08765 11.33230 24144 ft 368 kts 287°
2026-04-24 20:16 51.09500 11.29319 24144 ft 368 kts 287°
2026-04-24 20:17 51.10230 11.25421 24147 ft 368 kts 287°
2026-04-24 20:17 51.11691 11.17603 24149 ft 368 kts 287°
2026-04-24 20:17 51.12310 11.13638 24149 ft 369 kts 280°
2026-04-24 20:18 51.12512 11.10959 24149 ft 369 kts 275°
2026-04-24 20:18 51.12402 11.05483 24154 ft 371 kts 264°
2026-04-24 20:18 51.12006 11.01430 24155 ft 372 kts 263°
2026-04-24 20:18 51.11626 10.97361 24153 ft 372 kts 264°
2026-04-24 20:19 51.11258 10.93354 24154 ft 371 kts 264°
2026-04-24 20:19 51.10879 10.89226 24155 ft 371 kts 263°
2026-04-24 20:19 51.10503 10.85174 24155 ft 371 kts 263°
2026-04-24 20:19 51.10120 10.81088 24151 ft 371 kts 263°
2026-04-24 20:20 51.09739 10.77041 24153 ft 371 kts 263°
2026-04-24 20:20 51.09353 10.72972 24151 ft 371 kts 263°
2026-04-24 20:20 51.08967 10.68908 24154 ft 371 kts 263°
2026-04-24 20:20 51.08599 10.64855 24149 ft 370 kts 266°
2026-04-24 20:21 51.08555 10.60796 24152 ft 370 kts 271°
2026-04-24 20:21 51.08541 10.56687 24149 ft 370 kts 271°
2026-04-24 20:21 51.08528 10.52596 24150 ft 369 kts 271°
2026-04-24 20:21 51.08528 10.48561 24151 ft 369 kts 271°
2026-04-24 20:22 51.08537 10.44486 24153 ft 369 kts 271°
2026-04-24 20:22 51.08549 10.40400 24151 ft 369 kts 271°
2026-04-24 20:22 51.08562 10.36310 24151 ft 369 kts 271°
2026-04-24 20:22 51.08574 10.32217 24149 ft 369 kts 271°
2026-04-24 20:23 51.08583 10.28133 24152 ft 369 kts 271°
2026-04-24 20:23 51.08591 10.24058 24150 ft 369 kts 271°
2026-04-24 20:23 51.08597 10.19970 24148 ft 369 kts 271°
2026-04-24 20:23 51.08603 10.15887 24153 ft 369 kts 271°
2026-04-24 20:24 51.08605 10.13191 24151 ft 369 kts 271°
2026-04-24 20:24 51.08609 10.07676 24154 ft 385 kts 271°
2026-04-24 20:24 51.08610 10.03373 24154 ft 397 kts 270°
2026-04-24 20:24 51.08609 9.98938 24154 ft 395 kts 270°
2026-04-24 20:25 51.08606 9.94569 24155 ft 395 kts 270°
2026-04-24 20:25 51.08602 9.90181 24155 ft 395 kts 270°
2026-04-24 20:25 51.08596 9.85814 24156 ft 395 kts 270°
2026-04-24 20:25 51.08588 9.81488 24155 ft 395 kts 270°
2026-04-24 20:26 51.08579 9.77126 24154 ft 395 kts 270°
2026-04-24 20:26 51.08568 9.72682 24154 ft 395 kts 270°
2026-04-24 20:26 51.08583 9.68379 24154 ft 395 kts 270°
2026-04-24 20:26 51.08531 9.64022 24158 ft 395 kts 269°
2026-04-24 20:27 51.08467 9.59637 24156 ft 395 kts 269°
2026-04-24 20:27 51.08413 9.55279 24155 ft 395 kts 269°
2026-04-24 20:27 51.08371 9.50891 24159 ft 395 kts 269°
2026-04-24 20:27 51.08282 9.46523 24159 ft 395 kts 266°
2026-04-24 20:28 51.08050 9.42173 24157 ft 395 kts 265°
2026-04-24 20:28 51.07779 9.37823 24156 ft 395 kts 265°
2026-04-24 20:28 51.07514 9.33481 24156 ft 395 kts 265°
2026-04-24 20:28 51.07263 9.29153 24018 ft 393 kts 265°
2026-04-24 20:29 51.07101 9.26279 23788 ft 392 kts 265°
2026-04-24 20:29 51.06783 9.20514 23119 ft 389 kts 265°
2026-04-24 20:29 51.06550 9.16263 22489 ft 387 kts 265°
2026-04-24 20:29 51.06316 9.12009 21872 ft 384 kts 265°
2026-04-24 20:30 51.06082 9.07796 21276 ft 381 kts 265°
2026-04-24 20:30 51.05849 9.03619 20662 ft 379 kts 265°
2026-04-24 20:30 51.05614 8.99449 20073 ft 377 kts 265°
2026-04-24 20:30 51.05382 8.95350 19482 ft 374 kts 265°
2026-04-24 20:31 51.05148 8.91254 18885 ft 372 kts 265°
2026-04-24 20:31 51.04914 8.87169 18267 ft 370 kts 265°
2026-04-24 20:31 51.04678 8.83090 17588 ft 368 kts 265°
2026-04-24 20:31 51.04444 8.79055 16911 ft 366 kts 265°
2026-04-24 20:32 51.04208 8.75029 16252 ft 364 kts 265°
2026-04-24 20:32 51.03974 8.71041 15592 ft 363 kts 265°
2026-04-24 20:32 51.03738 8.67051 14951 ft 361 kts 265°
2026-04-24 20:32 51.03503 8.63094 14303 ft 360 kts 265°
2026-04-24 20:33 51.03266 8.59141 13647 ft 358 kts 265°
2026-04-24 20:33 51.03030 8.55226 12990 ft 355 kts 265°
2026-04-24 20:33 51.02793 8.51331 12430 ft 351 kts 266°
2026-04-24 20:33 51.02558 8.47471 12243 ft 354 kts 265°
2026-04-24 20:34 51.02346 8.43632 12184 ft 353 kts 266°
2026-04-24 20:34 51.02107 8.39747 12178 ft 354 kts 265°
2026-04-24 20:34 51.01838 8.35857 12178 ft 354 kts 265°
2026-04-24 20:34 51.01573 8.31973 12177 ft 354 kts 265°
2026-04-24 20:35 51.01318 8.28080 12184 ft 354 kts 265°
2026-04-24 20:35 51.01069 8.24173 12184 ft 354 kts 265°
2026-04-24 20:35 51.00824 8.20285 12183 ft 354 kts 265°
2026-04-24 20:35 51.00580 8.16402 12184 ft 354 kts 265°
2026-04-24 20:36 51.00335 8.12524 12180 ft 354 kts 265°
2026-04-24 20:36 51.00087 8.08620 12186 ft 354 kts 265°
2026-04-24 20:36 50.99837 8.04713 12184 ft 354 kts 265°
2026-04-24 20:36 50.99587 8.00818 12187 ft 355 kts 265°
2026-04-24 20:37 50.99335 7.96922 12185 ft 355 kts 265°
2026-04-24 20:37 50.99082 7.93027 12186 ft 355 kts 265°
2026-04-24 20:37 50.98915 7.90463 12182 ft 354 kts 265°
2026-04-24 20:37 50.98575 7.85285 11851 ft 351 kts 265°
2026-04-24 20:38 50.98407 7.82726 11514 ft 350 kts 265°
2026-04-24 20:38 50.98153 7.78899 10866 ft 349 kts 265°
2026-04-24 20:38 50.97898 7.75080 10397 ft 342 kts 265°
2026-04-24 20:38 50.97653 7.71439 10227 ft 322 kts 265°
2026-04-24 20:39 50.97422 7.68036 9996 ft 298 kts 265°
2026-04-24 20:39 50.97206 7.64838 9427 ft 287 kts 265°
2026-04-24 20:39 50.96994 7.61706 8665 ft 284 kts 265°
2026-04-24 20:39 50.96802 7.58882 7989 ft 282 kts 265°
2026-04-24 20:40 50.96589 7.55752 7262 ft 278 kts 266°
2026-04-24 20:40 50.96386 7.52812 7015 ft 256 kts 266°
2026-04-24 20:40 50.96199 7.50149 6835 ft 236 kts 266°
2026-04-24 20:40 50.96025 7.47642 6698 ft 221 kts 266°
2026-04-24 20:41 50.95803 7.45250 6306 ft 222 kts 258°
2026-04-24 20:41 50.95240 7.42958 5901 ft 223 kts 245°
2026-04-24 20:41 50.94551 7.40777 5559 ft 218 kts 246°
2026-04-24 20:41 50.93949 7.38660 5419 ft 202 kts 248°
2026-04-24 20:42 50.93357 7.36685 5155 ft 198 kts 247°
2026-04-24 20:42 50.92764 7.34704 4791 ft 200 kts 247°
2026-04-24 20:42 50.92162 7.32715 4414 ft 201 kts 247°
2026-04-24 20:42 50.91561 7.30720 4018 ft 202 kts 246°
2026-04-24 20:43 50.90946 7.28683 3449 ft 210 kts 246°
2026-04-24 20:43 50.90308 7.26574 3084 ft 205 kts 246°
2026-04-24 20:43 50.89711 7.24599 2589 ft 203 kts 246°
2026-04-24 20:43 50.89069 7.22440 1475 ft 230 kts 247°
2026-04-24 20:44 50.88404 7.20207 965 ft 219 kts 244°
2026-04-24 20:44 50.87754 7.18137 721 ft 195 kts 244°
2026-04-24 20:44 50.87211 7.16371 510 ft 164 kts 245°
2026-04-24 20:44 50.86749 7.14832 277 ft 143 kts 245°
2026-04-24 20:45 50.86442 7.13789 260 ft 72 kts 246°
2026-04-24 20:45 50.86253 7.13170 258 ft 47 kts 245°
2026-04-24 20:45 50.86116 7.12710 248 ft 46 kts 244°
2026-04-24 20:45 50.86042 7.12435 245 ft 15 kts 271°
2026-04-24 20:46 50.86189 7.12343 240 ft 35 kts 352°
2026-04-24 20:46 50.86352 7.12282 238 ft 4 kts 345°
2026-04-24 20:46 50.86448 7.12245 238 ft 28 kts 346°
2026-04-24 20:46 50.86590 7.12190 238 ft 16 kts 346°
2026-04-24 20:47 50.86619 7.12068 238 ft 11 kts 257°
2026-04-24 20:47 50.86610 7.12003 238 ft 0 kts 257°